カタログに戻る

STARLINK-30201

運用中通信VLEO
NORAD 57301·PAYLOAD·🇺🇸 United States

打ち上げ Jul 10, 2023 から Cape Canaveral Space Force Station

Loading…

次のパス (今後24時間)

TLE

最新Source: CelesTrak SupGP

元期: Sep 14, 2026, 20:57 UTC

1 57301C 23096M   26257.87340278  .00029979  00000+0  10859-2 0  2574
2 57301  42.9997 234.9449 0001151 263.3517 268.8603 15.27561340    16

AllMySatでSTARLINK-30201をリアルタイム追跡

Download on the App Store